weather.gov     
National Weather Service

Regional Weather Roundup
NWS Homepage
This page is being discontinued on March 12, 2014.
The same data is available at this site. Please update your bookmarks.
Thank you, and we apologize for the inconvenience.
Please send an email to SR-SRH.Webmaster@noaa.gov with any concerns.


Current Version
Previous Version:    01  02  03  04  05  06  07  08  09  10  11  12  13  14  15  16  17  18  19  20  21  22  23  24  25  26  27  
[Printable]
853
ASUS42 KILM 231710
RWRILM
RWRILM
REGIONAL HOURLY WEATHER ROUNDUP
NATIONAL WEATHER SERVICE WILMINGTON NC
100 PM EDT THU OCT 23 2014

NOTE: "FAIR" INDICATES FEW OR NO CLOUDS BELOW 12,000 FEET WITH NO
SIGNIFICANT WEATHER AND/OR OBSTRUCTIONS TO VISIBILITY.

...............WFO WILMINGTON COUNTY WARNING AREA...............

......COASTAL NC AND SC COUNTIES......

CITY           SKY/WX    TMP DP  RH WIND       PRES   REMARKS
WILMINGTON     SUNNY     66  44  45 NW13      29.98F
SOUTHPORT      SUNNY     65  44  45 W10       30.00F
N MYRTLE BEACH SUNNY     66  44  45 MISG      30.01F
MYRTLE BEACH   SUNNY     66  43  42 NW10      30.03F

......INLAND NC AND SC COUNTIES.......

CITY           SKY/WX    TMP DP  RH WIND       PRES   REMARKS
LUMBERTON      SUNNY     65  42  43 N5G17     30.01F
ELIZABETHTOWN  SUNNY     63  42  45 NW6       30.01F
WHITEVILLE     SUNNY     64  43  45 W5        30.00F
FLORENCE       SUNNY     66  41  40 N12       30.03F
DARLINGTON     SUNNY     64  41  42 N9        30.05F

....................REST OF NORTH CAROLINA......................

.........EASTERN NC.........

CITY           SKY/WX    TMP DP  RH WIND       PRES   REMARKS
CAPE HATTERAS  SUNNY     61  47  59 NW12G23   29.90F
JACKSONVILLE   SUNNY     64  43  45 W5        29.97F
MOREHEAD CITY  SUNNY     66  47  50 W13       29.93F
KENANSVILLE    SUNNY     63  43  48 W8        29.99F
NEW BERN       SUNNY     67  45  45 W10       29.95F
ELIZABETH CITY SUNNY     65  46  50 W14G25    29.87F

.........CENTRAL NC.........

CITY           SKY/WX    TMP DP  RH WIND       PRES   REMARKS
RALEIGH DURHAM SUNNY     64  42  44 NW7       30.00F
ROCKY MOUNT    SUNNY     66  43  43 NW10      29.95F
ROANOKE RAPIDS NOT AVBL
FAYETTEVILLE   SUNNY     65  42  43 NW9       30.01F
HOFFMAN        SUNNY     64  42  43 VRB6      30.04S

.........WESTERN NC.........

CITY           SKY/WX    TMP DP  RH WIND       PRES   REMARKS
CHARLOTTE      SUNNY     65  37  35 N14       30.07F
GREENSBORO     SUNNY     64  41  42 NW10G17   30.03F
HICKORY        NOT AVBL
BOONE          NOT AVBL
ASHEVILLE      NOT AVBL

.....................REST OF SOUTH CAROLINA.....................

.........EASTERN SC.........

CITY           SKY/WX    TMP DP  RH WIND       PRES   REMARKS
CHARLESTON     SUNNY     67  45  45 N7        30.06F
BEAUFORT MCAS  SUNNY     65  44  46 MISG      30.08F
HILTON HEAD    NOT AVBL

.........CENTRAL SC.........

CITY           SKY/WX    TMP DP  RH WIND       PRES   REMARKS
COLUMBIA       SUNNY     67  38  34 NW10      30.06F
ORANGEBURG     SUNNY     66  40  38 NW9       30.06F
SUMTER SHAW    SUNNY     64  42  44 W6        30.04F

.........WESTERN SC.........

CITY           SKY/WX    TMP DP  RH WIND       PRES   REMARKS
GREENVILLE     NOT AVBL
ROCK HILL      SUNNY     65  41  41 N10G17    30.07F
ANDERSON       SUNNY     64  41  42 SW5       30.08F
CLEMSON        NOT AVBL
GREENWOOD      SUNNY     65  40  39 W8        30.09F


...................COASTAL AND OFFSHORE REPORTS..................

................LOCAL PIERS AND NC RESERVE................


STATION/POSITION TIME  SKY/WX   TEMP    WIND        PRES    VSBY
                                AIR SEA DIR/SP/G
                 (UTC)          (F)     (DEG/KT/KT) (MB)    (MI)
JOHNY MRCER PIER 1700            63 73  310/  8/ 12 1014.8F
NC RESRV MASNBRO 1600            64     300/  3     1016.0S
OCEAN CREST PIER 1700            63 70  260/ 12/ 14 1015.0F
SPRINGMAID  PIER 1700            63 70  310/  8/ 12 1016.4F


................COASTAL AND OFFSHORE BUOYS................


STATION/POSITION TIME  SKY/WX   TEMP    WIND        PRES    VSBY
                                AIR SEA DIR/SP/G
                 (UTC)          (F)     (DEG/KT/KT) (MB)    (MI)
DIMNDSHOAL 41025 1700            61     300/ 19/ 27 1012.6F
CAPE LOOKOUT     1600            61     320/  7/  9 1014.4F
ONSLOW BAY 41036 1600            62 75  320/ 12/ 16 1014.7F
5 WRITEBCH 41038 1700            60 72  320/ 10/ 12   N/A
MASONBORO  41110 1700               72                N/A
WVE H/P(F/S)=  1/10 WND WVE H/P(F/S)=  2/10

WILM HARBR 41108 1700               72                N/A
WVE H/P(F/S)=  2/ 3 WND WVE H/P(F/S)=  2/ 3

27WRITEBCH 41037 NOT AVBL
FRYING PAN 41013 1700            60 74  300/ 10/ 14 1017.1F
WVE H/P(F/S)=  3/ 4 WND WVE H/P(F/S)=  2/ 4 SWL H/P/D(F/S/D)=  2/340/ 4

SUNST NRSH 41024 1600            63     330/ 10/ 10 1016.7F
CAPRS NRSH 41029 NOT AVBL
EDISTO     41004 1700            62 78  340/  8/ 12 1017.3F
WVE H/P(F/S)=  3/ 5 WND WVE H/P(F/S)=  2/ 4 SWL H/P/D(F/S/D)=  3/ 5



..........OFFSHORE BUOYS BEYOND 100 NM OFFSHORE...........
.....IN A TRIANGLE---HAT TO BERMUDA TO BAHAMAS TO HAT.....


STATION/POSITION TIME  SKY/WX   TEMP    WIND        PRES    VSBY
                                AIR SEA DIR/SP/G
                 (UTC)          (F)     (DEG/KT/KT) (MB)    (MI)
150E HAT   41001 NOT AVBL
W BERMUDA  41048 1607            75 79  270/ 19/ 23 1010.8
WVE H/P(F/S)=  9/ 8 WND WVE H/P(F/S)=  8/ 8 SWL H/P/D(F/S/D)=  5/ 10/16

ATLANTIC S 41049 1605            81 81  200/ 12/ 14 1013.7F
WVE H/P(F/S)=  3/ 8 WND WVE H/P(F/S)=  2/ 4 SWL H/P/D(F/S/D)=  3/100/ 8

E BAHAMAS  41046 1605            83 84  180/ 10/ 12 1013.3F
WVE H/P(F/S)=  3/10 WND WVE H/P(F/S)=  2/ 5 SWL H/P/D(F/S/D)=  3/ 80/10

NE BAHAMAS 41047 1620            78 82  290/ 12/ 14 1013.3F
WVE H/P(F/S)=  3/ 8 WND WVE H/P(F/S)=  2/ 5 SWL H/P/D(F/S/D)=  2/ 80/ 8

120E CANVRL41010 1700            74 81   20/ 10/ 14 1016.0F
WVE H/P(F/S)=  4/ 6 WND WVE H/P(F/S)=  2/ 4 SWL H/P/D(F/S/D)=  3/360/ 6


END




U.S. Dept. of Commerce
NOAA National Weather Service
1325 East West Highway
Silver Spring, MD 20910
E-mail: w-nws.webmaster@noaa.gov
Page last modified: May 16, 2007
NATIONAL WEATHER SERVICE: for Safety, for Work, for Fun - FOR LIFE